Location: Saint-Hippolyte
(43.6394°N, 4.7559°E)
Time: 14:18:23
(UTC+00:00)

NOAA 12 - Pass Details

Date: 24 October 2020
Orbit: 796 x 815 km, 98.5° (Epoch: 24 November)

Event Time Altitude Azimuth Distance (km) Brightness Sun altitude
Rises 17:04:58 0° 164° (SSE) 3,303 7.2 -4.7°
Reaches altitude 10° 17:07:17 10° 164° (SSE) 2,379 6.5 -5.1°
Maximum altitude 17:12:33 88° 77° (ENE) 816 4.2 -6.1°
Drops below altitude 10° 17:17:54 10° 347° (NNW) 2,408 6.6 -7.0°
Sets 17:20:15 0° 347° (NNW) 3,346 7.4 -7.4°
